CW2530 North Beach Haven NJ US current weather conditions

sailwx.info

Wind from 195 at 7 knots gusting 13

Air temperature 25.6° C
Dewpoint 24.2° C

Last reported at 2020-Aug-11 17:00 UTC.
Time now 2020-Aug-11 18:16 UTC

Location: N 39°35' W 074°14'.
View on Google Maps.

See reports from other nearby stations

  
Tides and Currents Weather Stations Pressure Air Temp Water Temp Dewpoint Dewpoint Depression Visibility Wind Speed Wind Dir Waves Ship Positions
date/time (UTC)wind fromknots sea level pressurealtimeterstation pressurevisibilityair tempwater tempwave heightnotes
2020-Aug-11 17:00 195 7 gusting 13 25.6
2020-Aug-11 16:45 188 6 gusting 13 25.6
2020-Aug-11 16:30 201 6 gusting 12 26.1
2020-Aug-11 16:15 202 7 gusting 13 25.6
2020-Aug-11 16:00 189 8 gusting 13 25.0
2020-Aug-11 15:45 198 9 gusting 13 25.0
2020-Aug-11 15:30 197 9 gusting 13 25.6
2020-Aug-11 15:15 203 6 gusting 12 25.6
2020-Aug-11 15:00 198 6 gusting 12 25.6
2020-Aug-11 14:45 204 5 gusting 9 25.6
2020-Aug-11 14:30 224 4 gusting 9 25.0
2020-Aug-11 14:15 219 6 gusting 13 24.4
2020-Aug-11 14:00 212 6 gusting 11 24.4
2020-Aug-11 13:45 198 5 gusting 10 23.9
2020-Aug-11 13:30 191 4 gusting 7 23.9
2020-Aug-11 13:15 183 4 gusting 7 23.3
2020-Aug-11 13:00 182 3 gusting 8 23.3
2020-Aug-11 12:45 185 4 gusting 8 23.3
2020-Aug-11 12:30 197 2 gusting 6 23.3
2020-Aug-11 12:15 194 2 gusting 6 23.3
2020-Aug-11 12:00 192 3 gusting 7 23.3
2020-Aug-11 11:44 187 3 gusting 7 23.3
2020-Aug-11 11:30 200 3 gusting 8 23.3
2020-Aug-11 11:15 197 3 gusting 6 23.3
2020-Aug-11 11:00 204 2 gusting 6 22.8
2020-Aug-11 10:45 188 4 gusting 6 22.8
2020-Aug-11 10:30 207 5 gusting 9 22.8
2020-Aug-11 10:15 210 5 gusting 8 22.8
2020-Aug-11 09:59 214 5 gusting 9 22.8
2020-Aug-11 09:45 223 6 gusting 11 22.8
2020-Aug-11 09:29 221 5 gusting 9 22.8
2020-Aug-11 09:15 212 5 gusting 8 22.8
2020-Aug-11 09:00 228 4 gusting 9 22.8
2020-Aug-11 08:45 227 4 gusting 8 22.2
2020-Aug-11 08:30 215 5 gusting 9 22.2
2020-Aug-11 08:15 210 5 gusting 10 22.2
2020-Aug-11 08:00 207 4 gusting 9 22.2
2020-Aug-11 07:45 207 4 gusting 6 22.8
2020-Aug-11 07:30 205 3 gusting 7 22.8
2020-Aug-11 07:14 193 3 gusting 5 23.3
2020-Aug-11 07:00 231 3 gusting 8 23.3
2020-Aug-11 06:44 230 4 gusting 7 23.3
2020-Aug-11 06:30 234 5 gusting 7 23.3
2020-Aug-11 06:15 212 4 gusting 6 23.3
2020-Aug-11 06:00 222 4 gusting 8 23.9
2020-Aug-11 05:44 230 6 gusting 10 23.9
2020-Aug-11 05:30 215 3 gusting 7 23.3
2020-Aug-11 05:15 212 4 gusting 7 23.3
2020-Aug-11 04:59 217 3 gusting 7 23.3
2020-Aug-11 04:45 214 4 gusting 8 23.9
2020-Aug-11 04:29 214 5 gusting 8 23.9
2020-Aug-11 04:15 208 4 gusting 9 23.9
2020-Aug-11 04:00 226 4 gusting 9 23.9
2020-Aug-11 03:44 226 4 gusting 9 23.9
2020-Aug-11 03:30 226 6 gusting 10 23.9
2020-Aug-11 03:15 224 6 gusting 11 23.9
2020-Aug-11 02:59 210 6 gusting 11 23.9
2020-Aug-11 02:44 221 6 gusting 11 23.9
2020-Aug-11 02:30 219 6 gusting 11 23.9
2020-Aug-11 02:15 220 7 gusting 13 24.4
2020-Aug-11 01:59 217 6 gusting 12 24.4
2020-Aug-11 01:45 220 6 gusting 12 24.4
2020-Aug-11 01:29 211 6 gusting 12 24.4
2020-Aug-11 01:14 215 6 gusting 13 24.4
2020-Aug-11 00:59 221 6 gusting 11 24.4
2020-Aug-11 00:45 211 6 gusting 13 24.4
2020-Aug-11 00:30 217 6 gusting 13 24.4
2020-Aug-11 00:14 221 8 gusting 14 25.0
2020-Aug-11 00:00 220 7 gusting 16 25.0
2020-Aug-10 23:44 217 8 gusting 16 25.6
2020-Aug-10 23:30 223 8 gusting 16 25.6
2020-Aug-10 23:15 220 9 gusting 19 25.6
2020-Aug-10 23:00 222 10 gusting 19 25.6
2020-Aug-10 22:44 217 10 gusting 19 25.6
2020-Aug-10 22:29 219 11 gusting 20 25.6
2020-Aug-10 22:14 216 11 gusting 20 25.6
2020-Aug-10 21:59 217 11 gusting 19 26.1
2020-Aug-10 21:45 215 11 gusting 23 26.1
2020-Aug-10 21:29 214 12 gusting 23 26.7
2020-Aug-10 21:14 218 11 gusting 20 26.7
2020-Aug-10 21:00 210 11 gusting 20 26.7
2020-Aug-10 20:44 213 9 gusting 19 27.2
2020-Aug-10 20:30 209 10 gusting 19 26.7
2020-Aug-10 20:14 206 10 gusting 19 26.7
2020-Aug-10 19:59 209 11 gusting 18 27.2
2020-Aug-10 19:44 208 10 gusting 18 27.2
2020-Aug-10 19:30 215 9 gusting 16 27.2
2020-Aug-10 19:14 213 10 gusting 19 27.2
2020-Aug-10 18:59 206 9 gusting 14 27.2
2020-Aug-10 18:45 206 11 gusting 21 26.7
2020-Aug-10 18:29 202 10 gusting 17 26.7
2020-Aug-10 18:14 206 13 gusting 20 26.7
2020-Aug-10 17:59 204 9 gusting 19 26.7
2020-Aug-10 17:45 200 10 gusting 17 26.7
2020-Aug-10 17:29 205 9 gusting 17 27.2
2020-Aug-10 17:15 207 9 gusting 18 26.7
2020-Aug-10 16:59 206 9 gusting 16 27.2
2020-Aug-10 16:44 205 9 gusting 17 26.7
2020-Aug-10 16:30 199 9 gusting 16 26.7
2020-Aug-10 16:14 200 9 gusting 17 26.7
2020-Aug-10 15:59 207 9 gusting 17 26.7
2020-Aug-10 15:45 205 10 gusting 17 26.1
2020-Aug-10 15:29 206 7 gusting 15 26.7
2020-Aug-10 15:14 196 6 gusting 13 26.7
2020-Aug-10 14:59 179 5 gusting 9 27.2
2020-Aug-10 14:44 186 5 gusting 9 27.2
2020-Aug-10 14:29 196 5 gusting 10 27.2
2020-Aug-10 14:14 190 5 gusting 9 26.7
2020-Aug-10 13:59 193 4 gusting 7 27.2
2020-Aug-10 13:44 229 3 gusting 7 27.8
2020-Aug-10 13:29 239 4 gusting 9 27.2
2020-Aug-10 13:14 256 3 gusting 8 26.7
2020-Aug-10 12:59 241 4 gusting 9 26.1
2020-Aug-10 12:44 251 3 gusting 6 26.1
2020-Aug-10 12:29 246 4 gusting 7 25.6
2020-Aug-10 12:14 239 4 gusting 7 25.0
2020-Aug-10 11:59 239 3 gusting 7 25.0
2020-Aug-10 11:44 250 3 gusting 7 25.0
2020-Aug-10 11:30 261 3 gusting 6 24.4
2020-Aug-10 11:14 249 3 gusting 7 24.4
2020-Aug-10 10:59 258 3 gusting 7 23.9
2020-Aug-10 10:44 254 3 gusting 7 23.9
2020-Aug-10 10:29 256 3 gusting 6 23.9
2020-Aug-10 10:14 247 3 gusting 6 23.9
2020-Aug-10 09:59 242 3 gusting 6 23.9
2020-Aug-10 09:44 245 3 gusting 6 23.9
2020-Aug-10 09:29 253 4 gusting 9 23.9
2020-Aug-10 09:15 241 4 gusting 9 23.9
2020-Aug-10 08:59 242 4 gusting 8 23.9
2020-Aug-10 08:44 244 4 gusting 9 23.9
2020-Aug-10 08:29 246 3 gusting 7 23.9
2020-Aug-10 08:14 234 4 gusting 7 23.9
2020-Aug-10 07:59 233 5 gusting 8 23.3
2020-Aug-10 07:44 234 5 gusting 9 23.3
2020-Aug-10 07:29 229 4 gusting 8 23.9
2020-Aug-10 07:14 231 5 gusting 8 23.9
2020-Aug-10 06:59 232 5 gusting 9 23.9
2020-Aug-10 06:44 229 4 gusting 8 23.9
2020-Aug-10 06:29 233 4 gusting 6 23.9
2020-Aug-10 06:15 235 2 gusting 6 23.9
2020-Aug-10 05:59 235 4 gusting 8 23.9
2020-Aug-10 05:45 234 5 gusting 10 23.9
2020-Aug-10 05:29 232 5 gusting 9 23.9
2020-Aug-10 05:14 233 6 gusting 13 23.9
2020-Aug-10 05:00 232 7 gusting 13 23.9
2020-Aug-10 04:44 232 6 gusting 12 24.4
2020-Aug-10 04:29 231 7 gusting 13 24.4
2020-Aug-10 04:14 230 6 gusting 15 24.4
2020-Aug-10 03:59 228 6 gusting 11 24.4
2020-Aug-10 03:44 226 6 gusting 12 24.4
2020-Aug-10 03:29 231 8 gusting 16 24.4
2020-Aug-10 03:14 232 7 gusting 13 24.4
2020-Aug-10 02:59 230 7 gusting 13 24.4
2020-Aug-10 02:44 227 7 gusting 15 24.4
2020-Aug-10 02:30 228 7 gusting 13 24.4
2020-Aug-10 02:14 228 7 gusting 15 24.4
2020-Aug-10 01:59 229 6 gusting 13 24.4
2020-Aug-10 01:44 228 7 gusting 13 24.4
2020-Aug-10 01:29 228 8 gusting 15 24.4
2020-Aug-10 01:14 226 9 gusting 16 24.4
2020-Aug-10 00:59 223 7 gusting 14 24.4
2020-Aug-10 00:44 217 7 gusting 14 24.4
2020-Aug-10 00:29 213 7 gusting 17 24.4
2020-Aug-10 00:14 210 7 gusting 15 24.4
2020-Aug-10 00:00 216 7 gusting 15 24.4
2020-Aug-09 23:44 211 8 gusting 19 24.4
2020-Aug-09 23:30 217 8 gusting 16 25.0
2020-Aug-09 23:14 209 8 gusting 15 25.0
2020-Aug-09 23:00 202 7 gusting 15 25.0
2020-Aug-09 22:44 205 8 gusting 15 25.0
2020-Aug-09 22:29 205 8 gusting 15 25.0
2020-Aug-09 22:14 208 8 gusting 13 24.4
2020-Aug-09 21:59 206 6 gusting 13 24.4
2020-Aug-09 21:44 199 7 gusting 13 25.0
2020-Aug-09 21:29 203 8 gusting 16 25.6
2020-Aug-09 21:14 198 8 gusting 14 25.6
2020-Aug-09 20:59 195 8 gusting 15 25.6
2020-Aug-09 20:44 199 7 gusting 13 25.6
2020-Aug-09 20:29 200 9 gusting 17 25.6
2020-Aug-09 20:14 203 9 gusting 16 26.1
2020-Aug-09 19:59 202 7 gusting 13 26.1
2020-Aug-09 19:44 206 12 gusting 19 25.6
2020-Aug-09 19:29 201 10 gusting 19 25.6
2020-Aug-09 19:15 205 8 gusting 15 26.7
2020-Aug-09 18:59 202 7 gusting 13 26.7
2020-Aug-09 18:44 198 8 gusting 17 26.1
2020-Aug-09 18:30 198 8 gusting 16 26.1
2020-Aug-09 18:14 198 9 gusting 16 25.6